Back to catalog

STARLINK-32655

AliveCommunicationsVLEO
NORAD 62202·PAYLOAD·🇺🇸 United States

Launched Dec 4, 2024 from Cape Canaveral Space Force Station

Loading…

Next Passes (next 24 hours)

TLE

FreshSource: CelesTrak SupGP

Epoch: Sep 15, 2026, 03:16 UTC

1 62202C 24229L   26258.13659722 -.00002227  00000+0 -80661-4 0  2586
2 62202  42.9999 281.0672 0001369 269.8670  28.2498 15.27575802    15

Track STARLINK-32655 in real time with AllMySat

Download on the App Store